[keps] orb08225.2l.amsat

Ray Hoad r.hoad at att.net
Thu Aug 13 17:58:55 PDT 2009


SB KEPS @ AMSAT  $ORB09225.N
2Line Orbital Elements 09225.AMSAT

HR AMSAT ORBITAL ELEMENTS FOR AMATEUR SATELLITES IN NASA FORMAT
FROM WA5QGD FORT WORTH,TX August 13, 2009
Send Subscribe/unsubscribe to KEPS at 
http://www.amsat.org/mailman/listinfo/keps
BID: ORB09225.N

DECODE 2-LINE ELSETS WITH THE FOLLOWING KEY:
1 AAAAAU 00  0  0 BBBBB.BBBBBBBB  .CCCCCCCC  00000-0  00000-0 0  DDDZ
2 AAAAA EEE.EEEE FFF.FFFF GGGGGGG HHH.HHHH III.IIII JJ.JJJJJJJJKKKKKZ
KEY: A-CATALOGNUM B-EPOCHTIME C-DECAY D-ELSETNUM E-INCLINATION F-RAAN
G-ECCENTRICITY H-ARGPERIGEE I-MNANOM J-MNMOTION K-ORBITNUM Z-CHECKSUM

TO ALL RADIO AMATEURS BT

AO-07
1 07530U 74089B   09225.62917936 -.00000027  00000-0  10000-3 0  5545
2 07530 101.4242 248.1937 0011823 155.0655 205.0989 12.53576252589910
FO-29
1 24278U 96046B   09225.16762400 -.00000058  00000-0 -22568-4 0  1097
2 24278 098.5446 091.5261 0350433 202.6010 155.9360 13.52944580641454
SO-33
1 25509U 98061B   09224.95215586  .00000028  00000-0 -58226-5 0  5178
2 25509 031.4293 091.5092 0354081 114.8536 248.9345 14.28260293563950
RS-22
1 27939U 03042A   09225.70468079 -.00000037  00000-0  17107-5 0  8641
2 27939 097.9347 098.4560 0012950 315.0063 045.0086 14.63334025313986
VO-52
1 28650U 05017B   09224.03664404 -.00000060  00000-0 -10647-5 0 02969
2 28650 097.7381 283.7616 0026567 204.8459 155.1449 14.81608976230913
AO-16
1 20439U 90005D   09225.01734438 -.00000005  00000-0  13393-4 0  6750
2 20439 098.2828 190.8479 0011308 007.2810 352.8540 14.31830441 21285
LO-19
1 20442U 90005G   09225.41436847 -.00000058  00000-0 -62714-5 0  5908
2 20442 098.2472 198.2693 0011843 002.3963 357.7268 14.32065264 21503
AO-27
1 22825U 93061C   09224.99046322 -.00000074  00000-0 -12484-4 0  3136
2 22825 098.4407 176.6364 0009411 096.6879 263.5386 14.29270535828027
IO-26
1 22826U 93061D   09225.04065347 -.00000002  00000-0  15646-4 0   424
2 22826 098.4338 177.4097 0009956 091.6899 268.5426 14.29523311828139
GO-32
1 25397U 98043D   09225.79407241  .00000007  00000-0  21247-4 0  9641
2 25397 098.3261 245.0466 0002242 085.7800 274.3623 14.23162310576325
NO-44
1 26931U 01043C   09225.65355506  .00000125  00000-0  80909-4 0  2397
2 26931 067.0519 276.2960 0006421 277.1666 082.8731 14.29564208410792
SO-50
1 27607U 02058C   09225.34564195 -.00000051  00000-0  13998-4 0  9577
2 27607 064.5571 211.4901 0061113 191.8340 168.1314 14.71452130357083
CO-55
1 27844U 03031E   09225.53361855  .00000032  00000-0  35335-4 0  6430
2 27844 098.7128 233.8898 0010044 344.1188 015.9670 14.20650854317409
CO-57
1 27848U 03031J   09225.23741578  .00000014  00000-0  27012-4 0  5921
2 27848 098.7168 232.6613 0009752 349.4055 010.6910 14.20451162317325
AO-51
1 28375U 04025K   09224.56922180 -.00000003  00000-0  12019-4 0  4598
2 28375 098.0528 230.8871 0084129 314.8913 044.5467 14.40649057269075
CO-56
1 28941U 06005C   09225.67858791  .00058409  39837-5  14801-3 0  3435
2 28941 098.1379 051.2793 0066424 272.5063 086.8608 15.91772240196377
GENESAT1
1 29655U 06058C   09225.31345856  .00008673  00000-0  82768-4 0  7817
2 29655 040.0223 185.0784 0003508 234.0321 126.0171 15.66696514151435
CP3
1 31129U 07012N   09225.08749649  .00000063  00000-0  24858-4 0  1252
2 31129 097.9853 275.4290 0103452 108.6480 252.6006 14.52154529123140
CO-65
1 32785U 08021C   09225.19658146 -.00000010  00000-0  55271-5 0  4435
2 32785 097.9398 288.6812 0014419 202.5580 157.4999 14.81506767 69888
KKS-1
1 33493U 09002B   09225.80969824  .00000201  00000-0  33075-4 0  6562
2 33493 098.0609 338.2843 0021269 057.6471 302.6797 14.80712561 29995
SOHLA-1
1 33496U 09002E   09225.78998660  .00000018  00000-0  11342-4 0  6202
2 33496 098.0415 334.2108 0007847 097.2063 263.0036 14.69442738 29737
NOAA-10
1 16969U 86073A   09225.49710377 -.00000023  00000-0  87423-5 0  7220
2 16969 098.6893 251.8274 0012923 033.1016 327.0981 14.27392125191687
NOAA-11
1 19531U 88089A   09225.27514875 -.00000047  00000-0 -17805-5 0  7390
2 19531 098.7828 314.3468 0011007 309.0685 050.9487 14.14900813 77594
NOAA-12
1 21263U 91032A   09225.51972061  .00000021  00000-0  27855-4 0  2254
2 21263 098.7734 233.6086 0012493 345.3068 014.7747 14.25588883948564
MET-3/5
1 21655U 91056A   09224.97414743  .00000051  00000-0  10000-3 0 07163
2 21655 082.5569 166.3852 0014803 042.4504 317.7759 13.17019873865101
MET-2/21
1 22782U 93055A   09225.81344168  .00000050  00000-0  31402-4 0  5362
2 22782 082.5494 136.3075 0022004 181.2479 178.8615 13.83639584805571
OKEAN-4
1 23317U 94066A   09225.12517064  .00000029  00000-0  64049-6 0  9883
2 23317 082.5396 281.3558 0022228 172.4681 187.6889 14.82713285800802
NOAA-14
1 23455U 94089A   09225.42564196 -.00000031  00000-0  71183-5 0  7217
2 23455 098.9051 302.8981 0009755 034.0765 326.1053 14.13767238754014
NOAA-15
1 25338U 98030A   09225.49821483  .00000189  00000-0  99790-4 0   401
2 25338 098.5879 213.4599 0009580 249.7465 110.2683 14.24779708584930
RESURS
1 25394U 98043A   09224.92678331 -.00000012  00000-0  12363-4 0 02843
2 25394 098.3374 254.3796 0002465 052.7852 307.3552 14.24187616576475
FENGYUN1
1 25730U 99025A   09225.91706768  .00000416  00000-0  26940-3 0  8268
2 25730 098.7573 194.3516 0023486 053.7884 306.5454 14.07950827528448
OKEAN-0
1 25860U 99039A   09225.41388555  .00000002  00000-0  76211-5 0  7563
2 25860 097.7911 204.3343 0001523 044.5628 315.5703 14.73583424541573
NOAA-16
1 26536U 00055A   09225.52646149 -.00000318  00000-0 -14688-3 0  5188
2 26536 099.1786 230.5852 0011412 118.3490 241.8829 14.12527055458399
NOAA-17
1 27453U 02032A   09225.47397543  .00000264  00000-0  13308-3 0  5196
2 27453 098.4788 282.5588 0010894 320.3070 039.7322 14.24084248370904
NOAA-18
1 28654U 05018A   09225.47408071  .00000296  00000-0  18804-3 0    68
2 28654 098.9080 168.2754 0013919 197.8852 162.1830 14.11277894218036
NOAA-19
1 33591U 09005A   09225.46645150  .00000389  00000-0  24040-3 0  2103
2 33591 098.7480 169.7448 0015193 081.4560 278.8317 14.10979583 26518
HUBBLE
1 20580U 90037B   09224.03928858  .00000349  00000-0  13915-4 0 04336
2 20580 028.4693 097.7770 0003579 156.1857 203.8952 15.00821899858253
ISS
1 25544U 98067A   09225.84305566  .00004672  00000-0  37040-4 0  4087
2 25544 051.6404 010.8568 0007956 330.8783 164.5954 15.73594045615031
CO-58
1 28895U 05043F   09225.22985064 -.00000031  00000-0  30969-5 0  3685
2 28895 098.0503 114.2267 0018118 166.1198 194.0475 14.59787041202058
FALCON
1 30776U 07006E   09225.88054954  .00000229  00000-0  19579-4 0  6341
2 30776 035.4333 109.3645 0001149 001.4121 358.6598 15.03284237133789
MAST
1 31126U 07012K   09225.17199067 -.00000007  00000-0  86172-5 0  6614
2 31126 097.9837 277.3560 0095652 102.7777 258.4144 14.53511294123319
CAPE1
1 31130U 07012P   09225.12925670  .00000064  00000-0  25134-4 0  6714
2 31130 097.9852 275.3725 0103752 108.8336 252.4144 14.52079248122951
COMPASS
1 32787U 08021E   09225.23606026  .00000106  00000-0  20288-4 0  4357
2 32787 097.9388 288.5683 0015242 203.6241 156.4266 14.81639524 69890
AAUSAT2
1 32788U 08021F   09224.72648622 -.00000051  00000-0  34415-6 0 04325
2 32788 097.9375 288.1290 0014743 206.6358 153.4091 14.81762311069821
DO-64
1 32789U 08021G   09224.74837861  .00000520  00000-0  72573-4 0  4452
2 32789 097.9438 288.3513 0015051 204.2883 155.7621 14.81765560 69825
CO-66
1 32791U 08021J   09225.21799736  .00000337  00000-0  49826-4 0  4277
2 32791 097.9395 288.5825 0015477 201.9765 158.0776 14.81465260 69857
RS-30
1 32953U 08025A   09224.53254200  .00000010  00000-0  00000 0 0  3786
2 32953 082.4970 221.5708 0020599 057.7030 302.6044 12.43002858 55390
TACSAT-3
1 35001U 09028A   09225.38195388  .00001271  00000-0  37795-4 0   718
2 35001 040.4569 258.5845 0024776 229.7703 130.0939 15.39031975 13161
PHARMSAT
1 35002U 09028B   09225.40413055  .00001234  00000-0  35972-4 0   709
2 35002 040.4693 257.9486 0027800 233.8528 125.9712 15.39789577 13166
HAWKSAT1
1 35003U 09028C   09225.45507469  .00001415  00000-0  34017-4 0   742
2 35003 040.4701 257.4605 0028077 237.0031 122.8593 15.40018351 13189
CP6
1 35004U 09028D   09225.24760044  .00006371  00000-0  15708-3 0   673
2 35004 040.4624 258.4621 0028642 235.0605 124.7927 15.40445144 13148
AEROCUB3
1 35005U 09028E   09225.12791088  .00002669  00000-0  69806-4 0   678
2 35005 040.4767 259.4042 0027762 233.1763 126.6510 15.40237341 13126
DRAGNSAT
1 35690U 09038B   09225.49914637  .00019600  00000-0  98332-4 0   158
2 35690 051.6400 011.8279 0004396 127.7077 232.4857 15.80989098  2215
/EX






More information about the Keps mailing list